Date String (YYYY-MM-DD hh:mm:ss) UTC,Instrument flags,absolute air pressure of the measurement (hPa),sample flow rate (lpm),inlet stack bypass flow (lpm),air temperature of the measurement (°C),ambient temperature measured by the external sensor (°C),aerosol sample conditioner tube jacket temperature (°C),OPC LED temperature (°C),internal box temperature (°C),relative humidity of the measurement (%),span deviation,mass concentration of particles derived from Lorenz-Mie calculation of OPC scattering (μg/m³),mass concentration of particles derived from Lorenz-Mie calculation of OPC scattering (μg/m³),mass concentration of particles derived from Lorenz-Mie calculation of OPC scattering (μg/m³)
DateTimeUTC,F1_M11,P_M11,Q1_M11,Q2_M11,T1_M11,T2_M11,T3_M11,T4_M11,T5_M11,U1_M11,ZSPAN_M11,X2_M11,X0_M11,X1_M11
2024-02-29 09:00:00,SystemResetWarning,0826.3,5.00,000.00,020.2,019.5,000.0,028.6,021.9,09.2,0000.0,0004.75,0015.80,0003.07
2024-02-29 09:01:00,SystemResetWarning,0826.3,5.00,000.00,020.2,019.4,000.0,028.6,021.9,09.1,0000.0,0004.74,0015.60,0003.06
2024-02-29 09:02:00,SystemResetWarning,0826.4,5.00,000.00,020.2,019.4,000.0,028.6,021.9,09.1,0000.0,0004.77,0015.67,0003.05
2024-02-29 09:03:00,SystemResetWarning,0826.3,5.01,000.00,020.2,019.4,000.0,028.6,021.9,09.1,0000.0,0004.81,0015.79,0003.05
2024-02-29 09:04:00,SystemResetWarning,0826.2,5.01,000.00,020.2,019.4,000.0,028.6,021.9,09.1,0000.0,0004.80,0015.87,0003.07
2024-02-29 09:05:00,SystemResetWarning,0826.2,5.00,000.00,020.2,019.4,000.0,028.5,021.9,09.0,0000.0,0004.76,0014.53,0003.07
2024-02-29 09:06:00,SystemResetWarning,0826.2,4.99,000.00,020.2,019.4,000.0,028.5,021.9,09.0,0000.0,0004.71,0013.92,0003.07
2024-02-29 09:07:00,SystemResetWarning,0826.2,4.99,000.00,020.2,019.4,000.0,028.5,021.9,08.9,0000.0,0004.72,0013.87,0003.10
2024-02-29 09:08:00,SystemResetWarning,0826.2,5.01,000.00,020.2,019.4,000.0,028.5,021.9,09.1,0000.0,0004.75,0014.31,0003.12
2024-02-29 09:09:00,SystemResetWarning,0826.2,5.01,000.00,020.2,019.4,000.0,028.5,021.9,09.1,0000.0,0004.72,0014.56,0003.13
2024-02-29 09:10:00,SystemResetWarning,0826.2,5.00,000.00,020.2,019.4,000.0,028.5,021.9,09.0,0000.0,0004.72,0014.04,0003.13
2024-02-29 09:11:00,SystemResetWarning,0826.2,5.00,000.00,020.2,019.4,000.0,028.5,021.9,09.2,0000.0,0004.67,0013.89,0003.12
2024-02-29 09:12:00,SystemResetWarning,0826.3,4.99,000.00,020.2,019.4,000.0,028.5,021.9,09.4,0000.0,0004.65,0014.29,0003.12
2024-02-29 09:13:00,SystemResetWarning,0826.3,4.99,000.00,020.2,019.4,000.0,028.5,021.9,09.5,0000.0,0004.67,0014.34,0003.14
2024-02-29 09:14:00,SystemResetWarning,0826.3,5.01,000.00,020.2,019.4,000.0,028.5,021.9,09.4,0000.0,0004.65,0014.79,0003.14
2024-02-29 09:15:00,SystemResetWarning,0826.2,5.01,000.00,020.1,019.4,000.0,028.5,021.9,09.4,0000.0,0004.65,0014.66,0003.13
2024-02-29 09:16:00,SystemResetWarning,0826.3,4.99,000.00,020.1,019.3,000.0,028.5,021.9,09.4,0000.0,0004.68,0015.16,0003.14
2024-02-29 09:17:00,SystemResetWarning,0826.3,5.00,000.00,020.1,019.3,000.0,028.5,021.9,09.4,0000.0,0004.72,0015.53,0003.14
2024-02-29 09:18:00,SystemResetWarning,0826.3,5.00,000.00,020.1,019.3,000.0,028.5,021.8,09.3,0000.0,0004.75,0015.18,0003.13
2024-02-29 09:19:00,SystemResetWarning,0826.2,5.01,000.00,020.1,019.3,000.0,028.5,021.8,09.2,0000.0,0004.77,0014.28,0003.12
2024-02-29 09:20:00,SystemResetWarning,0826.4,5.00,000.00,020.1,019.3,000.0,028.5,021.8,09.2,0000.0,0004.74,0013.77,0003.11
2024-02-29 09:21:00,SystemResetWarning,0826.4,5.00,000.00,020.1,019.3,000.0,028.5,021.8,09.2,0000.0,0004.71,0013.99,0003.10
2024-02-29 09:22:00,SystemResetWarning,0826.3,5.00,000.00,020.1,019.3,000.0,028.5,021.8,09.2,0000.0,0004.72,0014.88,0003.10
2024-02-29 09:23:00,SystemResetWarning,0826.2,5.00,000.00,020.1,019.3,000.0,028.5,021.8,09.3,0000.0,0004.69,0015.40,0003.08
2024-02-29 09:24:00,SystemResetWarning,0826.2,4.99,000.00,020.1,019.3,000.0,028.5,021.8,09.3,0000.0,0004.69,0016.41,0003.06
2024-02-29 09:25:00,SystemResetWarning,0826.1,5.00,000.00,020.1,019.3,000.0,028.5,021.8,09.3,0000.0,0004.70,0016.10,0003.05
2024-02-29 09:26:00,SystemResetWarning,0826.0,5.00,000.00,020.1,019.3,000.0,028.5,021.8,09.2,0000.0,0004.68,0016.29,0003.05
2024-02-29 09:27:00,SystemResetWarning,0826.1,5.00,000.00,020.1,019.3,000.0,028.5,021.8,09.2,0000.0,0004.67,0016.03,0003.06
2024-02-29 09:28:00,SystemResetWarning,0826.0,5.00,000.00,020.1,019.3,000.0,028.5,021.8,09.2,0000.0,0004.69,0016.62,0003.10
2024-02-29 09:29:00,SystemResetWarning,0826.2,5.01,000.00,020.1,019.3,000.0,028.5,021.8,09.3,0000.0,0004.66,0016.63,0003.10
2024-02-29 09:30:00,SystemResetWarning,0826.2,5.01,000.00,020.1,019.3,000.0,028.5,021.8,09.3,0000.0,0004.64,0016.93,0003.11
2024-02-29 09:31:00,SystemResetWarning,0826.0,5.00,000.00,020.1,019.3,000.0,028.5,021.8,09.3,0000.0,0004.66,0016.77,0003.12
2024-02-29 09:32:00,SystemResetWarning,0826.1,4.99,000.00,020.1,019.3,000.0,028.5,021.8,09.3,0000.0,0004.73,0017.78,0003.13
2024-02-29 09:33:00,SystemResetWarning,0825.9,4.99,000.00,020.1,019.3,000.0,028.5,021.8,09.3,0000.0,0004.74,0017.37,0003.13
2024-02-29 09:34:00,SystemResetWarning,0826.1,5.00,000.00,020.1,019.3,000.0,028.4,021.8,09.3,0000.0,0004.76,0016.74,0003.14
2024-02-29 09:35:00,SystemResetWarning,0826.2,4.99,000.00,020.1,019.3,000.0,028.4,021.8,09.3,0000.0,0004.81,0015.98,0003.15
2024-02-29 09:36:00,SystemResetWarning,0826.2,5.00,000.00,020.1,019.3,000.0,028.4,021.8,09.4,0000.0,0004.85,0015.98,0003.15
2024-02-29 09:37:00,SystemResetWarning,0826.2,5.00,000.00,020.1,019.3,000.0,028.4,021.8,09.3,0000.0,0004.82,0016.88,0003.17
2024-02-29 09:38:00,SystemResetWarning,0826.2,5.00,000.00,020.1,019.3,000.0,028.4,021.8,09.3,0000.0,0004.81,0017.31,0003.16
2024-02-29 09:39:00,SystemResetWarning,0826.2,5.00,000.00,020.0,019.3,000.0,028.4,021.8,09.3,0000.0,0004.71,0016.43,0003.13
2024-02-29 09:40:00,SystemResetWarning,0826.1,5.00,000.00,020.0,019.3,000.0,028.4,021.8,09.4,0000.0,0004.65,0016.49,0003.10
2024-02-29 09:41:00,SystemResetWarning,0826.0,5.00,000.00,020.0,019.3,000.0,028.4,021.8,09.3,0000.0,0004.62,0015.66,0003.08
2024-02-29 09:42:00,SystemResetWarning,0826.0,5.00,000.00,020.0,019.3,000.0,028.4,021.7,09.3,0000.0,0004.57,0016.30,0003.06
2024-02-29 09:43:00,SystemResetWarning,0826.2,4.99,000.00,020.0,019.3,000.0,028.4,021.7,09.4,0000.0,0004.54,0016.75,0003.04
2024-02-29 09:44:00,SystemResetWarning,0826.4,4.99,000.00,020.0,019.3,000.0,028.4,021.7,09.4,0000.0,0004.52,0017.66,0003.04
2024-02-29 09:45:00,SystemResetWarning,0826.3,5.00,000.00,020.0,019.3,000.0,028.4,021.8,09.3,0000.0,0004.55,0018.24,0003.04
2024-02-29 09:46:00,SystemResetWarning,0826.0,5.01,000.00,020.0,019.3,000.0,028.4,021.7,09.3,0000.0,0004.50,0018.83,0003.03
2024-02-29 09:47:00,SystemResetWarning,0825.8,5.00,000.00,020.0,019.3,000.0,028.4,021.7,09.3,0000.0,0004.44,0019.36,0003.03
2024-02-29 09:48:00,SystemResetWarning,0825.8,5.00,000.00,020.0,019.3,000.0,028.4,021.7,09.3,0000.0,0004.40,0018.68,0003.00
2024-02-29 09:49:00,SystemResetWarning,0825.9,5.00,000.00,020.0,019.2,000.0,028.4,021.7,09.5,0000.0,0004.39,0017.98,0002.98
2024-02-29 09:50:00,SystemResetWarning,0825.9,5.00,000.00,020.0,019.2,000.0,028.4,021.7,09.5,0000.0,0004.41,0017.60,0003.00
2024-02-29 09:51:00,SystemResetWarning,0825.9,5.00,000.00,020.0,019.2,000.0,028.4,021.7,09.5,0000.0,0004.49,0018.00,0003.02
2024-02-29 09:52:00,SystemResetWarning,0825.8,4.99,000.00,020.0,019.2,000.0,028.4,021.7,09.5,0000.0,0004.49,0019.39,0003.03
2024-02-29 09:53:00,SystemResetWarning,0825.8,5.00,000.00,020.0,019.2,000.0,028.4,021.7,09.5,0000.0,0004.49,0019.11,0003.04
2024-02-29 09:54:00,SystemResetWarning,0826.0,5.00,000.00,020.0,019.2,000.0,028.4,021.7,09.5,0000.0,0004.47,0019.01,0003.03
2024-02-29 09:55:00,SystemResetWarning,0825.9,5.00,000.00,020.0,019.2,000.0,028.4,021.7,09.7,0000.0,0004.42,0017.85,0003.01
2024-02-29 09:56:00,SystemResetWarning,0826.0,5.00,000.00,019.9,019.2,000.0,028.4,021.7,09.7,0000.0,0004.47,0017.72,0003.00
2024-02-29 09:57:00,SystemResetWarning,0825.9,5.01,000.00,019.9,019.2,000.0,028.4,021.7,09.7,0000.0,0004.47,0016.91,0002.97
2024-02-29 09:58:00,SystemResetWarning,0826.1,4.99,000.00,019.9,019.1,000.0,028.4,021.6,09.7,0000.0,0004.48,0017.48,0002.96
2024-02-29 09:59:00,SystemResetWarning,0826.2,5.00,000.00,019.9,019.1,000.0,028.3,021.6,09.8,0000.0,0004.48,0018.74,0002.93
